[[{"header":{"parameterUnit":"m.s-1","parameterCategory":1,"la1":30.2991,"la2":30.254,"lo1":-89.0895,"lo2":-89.0444,"dy":0.0017,"dx":0.0017,"nx":28,"ny":28,"refTime":"2024-07-03T03:00:00:Z","depth":0,"parameterNumber":2,"parameterNumberName":"U-component_of_WINDS"},"data":[0,0,0,0,0,0,0,0,0,0,0,0,0,0,0,0,0,0,0,0,0,0,0,0,0,0,0,0,0,0,0,0,0,0,0,0,0,0,0,0,0,0,0,0,0,0,0,0,0,0,0,0,0,0,0,0,0,0,2.5921,2.5922,0,2.5987,2.5988,2.5989,2.596,2.5958,2.5956,2.5955,2.602,2.6023,2.6027,0,0,0,0,0,0,0,0,0,0,0,0,0,2.5767,2.577,2.5921,2.5922,2.5923,2.5987,2.5988,2.5989,2.596,2.5958,2.5956,2.5954,2.6019,2.6023,2.6027,0,0,0,0,0,0,0,0,0,0,0,0,0,2.5834,2.5771,2.5921,2.5916,2.5917,2.5987,2.5988,2.5989,2.596,2.5958,2.5955,2.5953,2.6018,2.6023,2.6028,2.6106,0,0,2.6042,2.6044,0,0,0,0,0,0,0,0,2.583,2.5839,2.5916,2.5917,2.5917,2.5963,2.5958,2.6028,2.5961,2.5944,2.5955,2.5952,2.6003,2.6009,2.6027,2.6109,2.6112,2.6043,2.6046,2.6048,2.6049,0,0,0,0,0,0,0,2.5825,2.5836,2.5947,2.5917,2.5918,2.591,2.5916,2.5971,2.5986,2.5945,2.5943,2.5951,2.6003,2.6022,2.6028,2.6113,2.6043,2.6047,2.605,2.6052,2.6259,2.6261,0,0,0,0,0,0,2.5821,2.5833,2.5945,2.5949,2.5867,2.5914,2.5922,2.5951,2.5985,2.5988,2.5953,2.595,2.6015,2.6022,2.603,2.6121,2.6048,2.6052,2.6055,2.6256,2.626,2.6262,0,0,0,0,0,0,2.5818,2.5831,2.5943,2.589,2.5904,2.592,2.5952,2.5953,2.5972,2.5992,2.5994,2.597,2.6013,2.6023,2.6087,2.6123,2.6055,2.6059,2.6253,2.6257,2.6261,2.6306,0,0,0,0,0,0,2.5814,2.583,2.5861,2.5891,2.5907,2.5999,2.5954,2.5956,2.5981,2.5977,2.6008,2.6011,2.6012,2.6079,2.6091,2.6129,2.6063,2.625,2.6255,2.626,2.6301,2.6311,2.6319,0,0,0,0,0,2.5808,2.5872,2.5863,2.5877,2.5946,2.6001,2.601,2.6011,2.5984,2.6014,2.6026,2.601,2.6118,2.6086,2.6099,2.6139,2.6248,2.6254,2.6259,2.6297,2.6309,2.6319,0,0,0,0,0,0,2.5846,2.5876,2.5866,2.5942,2.5969,2.5996,2.6035,2.6024,2.6059,2.6053,2.6052,2.6059,2.6124,2.6138,2.6102,2.6214,2.6178,2.6187,2.6203,2.6214,2.6223,2.6217,2.6067,0,0,0,0,0,2.5863,2.5906,2.593,2.5994,2.6008,2.6019,2.6044,2.6041,2.6069,2.6081,2.6098,2.6125,2.6164,2.619,2.6228,2.6304,2.6308,2.6337,2.6346,2.6353,2.636,2.6397,2.6409,2.6281,2.6281,2.6281,0,0,2.5898,2.592,2.5948,2.6002,2.6023,2.6066,2.6029,2.6077,2.6109,2.6088,2.6148,2.6161,2.6191,2.626,2.6291,2.6274,2.6396,2.6361,2.6366,2.6369,2.6405,2.6417,2.6427,2.6285,2.6285,2.6284,0,0,2.5984,2.6007,2.6061,2.6083,2.6115,2.6121,2.6134,2.6163,2.6171,2.6231,2.6215,2.6253,2.6322,2.6343,2.6362,2.6455,2.644,2.6467,2.6513,2.6549,2.6559,2.6568,2.6598,2.6609,2.6474,2.6474,2.6475,0,2.6024,2.609,2.609,2.6139,2.6162,2.6145,2.6198,2.6219,2.6262,2.6278,2.6258,2.6342,2.6362,2.6433,2.6455,2.6473,2.6486,2.6462,2.6558,2.6567,2.6575,2.6603,2.6615,2.6477,2.6477,2.6477,2.6476,0,2.6135,2.6181,2.6221,2.6261,2.6289,2.6341,2.6347,2.6375,2.637,2.6378,2.6438,2.6461,2.6501,2.6519,2.6515,2.659,2.6577,2.6558,2.6521,2.659,2.6616,2.6628,2.6481,2.648,2.648,2.6479,0,0,2.6246,2.6286,2.63,2.6317,2.6351,2.6385,2.6435,2.6474,2.6497,2.6527,2.6566,2.6624,2.6606,2.6628,2.6626,2.6659,2.6726,2.6635,2.6636,2.6649,2.6806,2.6817,2.683,2.6718,2.672,2.6721,2.6802,0,2.6332,2.6419,2.642,2.6498,2.6538,2.6523,2.6565,2.6589,2.6598,2.6632,2.6642,2.6682,2.6656,2.6669,2.6701,2.6711,2.6757,2.6706,2.6751,2.6753,2.6741,2.6845,2.6858,2.6933,2.6812,2.6814,2.6816,0,2.6444,2.6477,2.6559,2.6584,2.6601,2.6639,2.6674,2.6708,2.6735,2.6738,2.6763,2.6755,2.6803,2.6767,2.6831,2.6796,2.6815,2.6823,2.6826,2.6828,2.6787,2.6846,2.6957,2.6967,2.6832,2.6831,2.683,0,2.6512,2.6577,2.6634,2.665,2.6681,2.6708,2.6722,2.6746,2.6769,2.68,2.6814,2.685,2.6869,2.6896,2.6898,2.6872,2.6962,2.6926,2.6964,2.6964,2.6981,2.698,2.7094,2.6999,2.6999,2.6998,2.6998,0,2.6607,2.6657,2.6665,2.67,2.6754,2.6755,2.6809,2.6821,2.6842,2.6877,2.6867,2.69,2.6902,2.6935,2.6937,2.6988,2.6998,2.7001,2.7,2.7,2.6999,2.701,2.7004,2.7001,2.7001,2.7,2.7,0,2.6691,2.6699,2.6759,2.6784,2.6791,2.683,2.6851,2.6883,2.689,2.6935,2.6945,2.6957,2.6996,2.7001,2.7047,2.7047,2.7108,2.7103,2.7099,2.7097,2.7133,2.7128,2.7256,2.7271,2.7169,2.717,2.7171,0,2.6749,2.6787,2.6816,2.6839,2.6854,2.6892,2.6915,2.6916,2.694,2.6972,2.6999,2.7037,2.7067,2.7129,2.7141,2.7175,2.7169,2.7211,2.7174,2.7172,2.7166,2.7162,2.7164,2.7218,2.7219,2.722,2.722,0,2.685,2.6852,2.6886,2.692,2.6948,2.6975,2.7001,2.702,2.7025,2.7052,2.7091,2.7115,2.716,2.7197,2.723,2.7243,2.7232,2.7232,2.7242,2.7241,2.7235,2.7235,2.7115,2.7229,2.7228,2.7227,2.7227,2.7227,2.6921,2.6953,2.6977,2.7014,2.7034,2.7058,2.7088,2.7099,2.7132,2.7169,2.7168,2.7211,2.7234,2.7277,2.7293,2.7325,2.7311,2.7326,2.7329,2.7332,2.7334,2.7233,2.7331,2.7331,2.7331,2.7331,2.733,0,2.7019,2.7033,2.7068,2.7103,2.7132,2.712,2.7147,2.7171,2.7209,2.7232,2.7261,2.7305,2.734,2.7354,2.7388,2.741,2.7406,2.7419,2.7416,2.7418,2.7346,2.7333,2.7422,2.7422,2.7422,2.7422,2.7422,2.7422,2.7073,2.7125,2.7129,2.719,2.7204,2.7245,2.7261,2.7282,2.73,2.7349,2.7378,2.7387,2.7406,2.744,2.7471,2.7474,2.7486,2.75,2.7501,2.7433,2.7424,2.7415,2.7402,2.7504,2.7504,2.757,2.757,2.7571]},{"header":{"parameterUnit":"m.s-1","parameterCategory":1,"la1":30.2991,"la2":30.254,"lo1":-89.0895,"lo2":-89.0444,"dy":0.0017,"dx":0.0017,"nx":28,"ny":28,"refTime":"2024-07-03T03:00:00:Z","depth":0,"parameterNumber":3,"parameterNumberName":"V-component_of_WINDS"},"data":[0,0,0,0,0,0,0,0,0,0,0,0,0,0,0,0,0,0,0,0,0,0,0,0,0,0,0,0,0,0,0,0,0,0,0,0,0,0,0,0,0,0,0,0,0,0,0,0,0,0,0,0,0,0,0,0,0,0,2.293,2.2931,0,2.2996,2.2997,2.2998,2.2982,2.2981,2.298,2.2979,2.3044,2.3046,2.3049,0,0,0,0,0,0,0,0,0,0,0,0,0,2.2786,2.2789,2.293,2.2931,2.2932,2.2996,2.2997,2.2998,2.2983,2.2981,2.298,2.2978,2.3043,2.3046,2.305,0,0,0,0,0,0,0,0,0,0,0,0,0,2.285,2.279,2.293,2.2932,2.2933,2.2996,2.2997,2.2998,2.2983,2.2981,2.2979,2.2977,2.3042,2.3046,2.305,2.3114,0,0,2.3063,2.3065,0,0,0,0,0,0,0,0,2.2847,2.2855,2.2931,2.2932,2.2933,2.2979,2.297,2.3037,2.2983,2.2964,2.2979,2.2977,2.3024,2.3029,2.3046,2.3117,2.312,2.3064,2.3066,2.3068,2.3069,0,0,0,0,0,0,0,2.2842,2.2853,2.2956,2.2932,2.2933,2.2928,2.2935,2.2983,2.3003,2.2965,2.2964,2.2973,2.3024,2.3042,2.3047,2.3121,2.3064,2.3067,2.307,2.3072,2.3247,2.3249,0,0,0,0,0,0,2.2837,2.2849,2.2954,2.2958,2.2884,2.2932,2.294,2.2966,2.3003,2.3007,2.2974,2.2972,2.3035,2.3042,2.3049,2.3126,2.3068,2.3072,2.3075,2.3245,2.3247,2.3249,0,0,0,0,0,0,2.2834,2.2847,2.2951,2.2903,2.2916,2.2937,2.2966,2.2968,2.2986,2.3009,2.3013,2.2989,2.3034,2.3043,2.3098,2.3128,2.3074,2.3078,2.3242,2.3245,2.3248,2.328,0,0,0,0,0,0,2.283,2.2846,2.2872,2.2904,2.2919,2.3,2.2968,2.2971,2.2994,2.2991,2.3024,2.3028,2.3033,2.3092,2.3102,2.3133,2.3082,2.324,2.3244,2.3247,2.3277,2.3284,2.329,0,0,0,0,0,2.2825,2.2878,2.2873,2.2886,2.2952,2.3002,2.301,2.3017,2.2997,2.3022,2.3036,2.3027,2.3123,2.3097,2.3109,2.3142,2.3238,2.3243,2.3247,2.3273,2.3283,2.329,0,0,0,0,0,0,2.2848,2.2882,2.2877,2.2942,2.2969,2.2999,2.3032,2.3026,2.3059,2.3055,2.306,2.3067,2.3123,2.3138,2.3109,2.3205,2.3177,2.3184,2.3193,2.3202,2.3209,2.3204,2.3085,0,0,0,0,0,2.2861,2.29,2.2927,2.2982,2.2995,2.3011,2.3033,2.3036,2.3064,2.3075,2.3094,2.312,2.3156,2.318,2.3215,2.3278,2.3284,2.3306,2.3313,2.3319,2.3325,2.3358,2.3368,2.3264,2.3264,2.3264,0,0,2.2887,2.291,2.2935,2.2987,2.3008,2.3047,2.3021,2.3064,2.3093,2.3081,2.3134,2.3149,2.3178,2.3238,2.3265,2.3252,2.3354,2.3325,2.3329,2.3332,2.3364,2.3373,2.3382,2.3268,2.3267,2.3267,0,0,2.2955,2.2977,2.3024,2.3046,2.3079,2.3089,2.31,2.3131,2.314,2.3193,2.3185,2.3218,2.3281,2.3302,2.3321,2.3395,2.3387,2.3406,2.3442,2.3474,2.3482,2.349,2.3515,2.3524,2.3412,2.3412,2.3412,0,2.2983,2.3043,2.3049,2.3093,2.3115,2.3107,2.3153,2.3174,2.3216,2.3231,2.3216,2.3293,2.3313,2.3376,2.3394,2.341,2.3422,2.3403,2.3481,2.3488,2.3495,2.3519,2.3529,2.3414,2.3414,2.3414,2.3414,0,2.3076,2.3117,2.3151,2.3192,2.3218,2.3263,2.3275,2.33,2.3299,2.331,2.3363,2.3387,2.3425,2.344,2.344,2.3503,2.3494,2.348,2.3452,2.3507,2.353,2.3539,2.3417,2.3417,2.3416,2.3415,0,0,2.3161,2.3204,2.3216,2.3234,2.3269,2.33,2.3344,2.3382,2.3403,2.3432,2.3467,2.352,2.3507,2.3528,2.353,2.3558,2.3614,2.3541,2.3541,2.3553,2.3683,2.3693,2.3704,2.3608,2.361,2.3612,2.368,0,2.3231,2.331,2.3315,2.3385,2.3422,2.3414,2.3452,2.3476,2.3487,2.3519,2.3531,2.3567,2.3548,2.3561,2.3588,2.3601,2.364,2.3596,2.364,2.3642,2.3633,2.3716,2.3727,2.3791,2.3689,2.3691,2.3692,0,2.3325,2.3356,2.343,2.3458,2.3474,2.3508,2.3542,2.3574,2.36,2.3606,2.3629,2.3627,2.367,2.3641,2.3699,2.3669,2.3687,2.3696,2.3699,2.3703,2.367,2.3721,2.3811,2.3821,2.3706,2.3705,2.3704,0,2.3378,2.3439,2.3491,2.3506,2.3541,2.3564,2.358,2.3605,2.3627,2.3656,2.367,2.3704,2.3723,2.3748,2.3754,2.3733,2.3812,2.3784,2.3817,2.3817,2.3834,2.3833,2.3927,2.3847,2.3846,2.3846,2.3846,0,2.3456,2.3501,2.3515,2.3547,2.3596,2.3602,2.365,2.3664,2.3686,2.3719,2.3713,2.3744,2.375,2.3782,2.3787,2.3833,2.3842,2.3847,2.3847,2.3847,2.3846,2.3859,2.3854,2.3849,2.3848,2.3848,2.3847,0,2.3524,2.3536,2.3591,2.3619,2.3627,2.3662,2.3685,2.3714,2.3724,2.3766,2.3776,2.3791,2.3827,2.3836,2.388,2.3883,2.3938,2.3934,2.3929,2.3929,2.3961,2.3957,2.4066,2.408,2.3991,2.3992,2.3992,0,2.3573,2.3608,2.3639,2.3661,2.3677,2.3713,2.3735,2.3741,2.3764,2.3796,2.3822,2.3858,2.3887,2.3946,2.396,2.3993,2.399,2.4025,2.3994,2.3993,2.3989,2.3987,2.399,2.4031,2.4032,2.4033,2.4034,0,2.3658,2.3662,2.3695,2.373,2.3757,2.3784,2.381,2.3828,2.3837,2.3863,2.3901,2.3923,2.3968,2.4003,2.4036,2.405,2.4043,2.4043,2.4052,2.4052,2.4048,2.405,2.3945,2.4041,2.404,2.4039,2.4039,2.4039,2.3718,2.3748,2.3774,2.381,2.3831,2.3855,2.3883,2.3897,2.3928,2.3966,2.3966,2.4007,2.4031,2.4074,2.409,2.4121,2.411,2.4124,2.4127,2.413,2.4133,2.4043,2.4127,2.4127,2.4127,2.4127,2.4126,0,2.3802,2.3819,2.3852,2.3888,2.3917,2.3908,2.3936,2.396,2.3996,2.4019,2.4048,2.4091,2.4124,2.4141,2.4174,2.4195,2.4193,2.4204,2.4202,2.4205,2.4141,2.413,2.4205,2.4205,2.4205,2.4205,2.4205,2.4205,2.385,2.3899,2.3905,2.3964,2.3979,2.402,2.4036,2.4058,2.4076,2.4124,2.4153,2.4163,2.4183,2.4217,2.4247,2.4251,2.4263,2.4276,2.4278,2.4218,2.421,2.4202,2.4191,2.4278,2.4278,2.4339,2.4339,2.434]}]]